Location: Peterborough
(44.3091°N, 78.3197°W)
Time: 05:04:40
(UTC-04:00)

Tiros 1 - Pass Details

Date: 09 April 2023
Orbit: 627 x 661 km, 48.4° (Epoch: 09 June)

Event Time Altitude Azimuth Distance (km) Brightness Sun altitude
Rises 07:17:35 0° 289° (WNW) 2,989 10.0 5.8°
Reaches altitude 10° 07:20:11 10° 278° (W) 2,075 9.2 6.2°
Maximum altitude 07:24:15 28° 220° (SW) 1,241 8.3 6.9°
Drops below altitude 10° 07:28:17 10° 162° (SSE) 2,066 10.0 7.7°
Sets 07:30:53 0° 151° (SSE) 2,972 10.9 8.1°
